DLH1HR LGSR-EDDM

Flight info

Callsign DLH1HR
Flight time N/A
Altitude 36000
Route MADEX UL53 KOR UL613 YNN UL611 TUMBO DCT OVVER DCT RODON DCT NERRA DCT DARZA DCT RASTA DCT REDBU Q112 NAPSA NAPSA4A
Aircraft A321/M-SDE2E3FGIJ1LORWXYZ/HB1

Departure

Time 2026-05-08 15:41
Airport Santorini International Airport (LGSR)

Arrival

Time N/A
Airport Munich Airport (EDDM)
Time Latitude Longitude Altitude Speed Heading
2026-05-08 15:40 36.31449 25.53628 3948 ft 222 kts 153°
2026-05-08 15:41 36.30087 25.54596 4599 ft 228 kts 153°
2026-05-08 15:41 36.28686 25.55588 5236 ft 235 kts 153°
2026-05-08 15:41 36.27428 25.56941 5831 ft 248 kts 127°
2026-05-08 15:41 36.26753 25.58936 6408 ft 258 kts 97°
2026-05-08 15:42 36.26890 25.61206 6695 ft 273 kts 64°
2026-05-08 15:42 36.27926 25.63148 7205 ft 271 kts 37°
2026-05-08 15:42 36.29365 25.64658 7863 ft 271 kts 30°
2026-05-08 15:42 36.30920 25.65980 8573 ft 271 kts 24°
2026-05-08 15:43 36.32574 25.67082 9283 ft 269 kts 16°
2026-05-08 15:43 36.34308 25.67938 9991 ft 268 kts
2026-05-08 15:43 36.36098 25.68537 10633 ft 266 kts
2026-05-08 15:43 36.37920 25.68876 11289 ft 264 kts 356°
2026-05-08 15:44 36.39750 25.68965 11917 ft 263 kts 351°
2026-05-08 15:44 36.41574 25.68810 12546 ft 263 kts 345°
2026-05-08 15:44 36.43370 25.68411 13183 ft 262 kts 340°
2026-05-08 15:44 36.45119 25.67771 13810 ft 262 kts 334°
2026-05-08 15:45 36.46800 25.66898 14385 ft 262 kts 328°
2026-05-08 15:45 36.48398 25.65795 14926 ft 263 kts 322°
2026-05-08 15:45 36.49889 25.64479 15488 ft 263 kts 316°
2026-05-08 15:45 36.51259 25.62963 16036 ft 264 kts 310°
2026-05-08 15:46 36.52491 25.61263 16585 ft 265 kts 305°
2026-05-08 15:46 36.53572 25.59402 17160 ft 266 kts 300°
2026-05-08 15:46 36.54481 25.57396 17708 ft 267 kts 294°
2026-05-08 15:46 36.55203 25.55260 18263 ft 269 kts 288°
2026-05-08 15:47 36.55726 25.53022 18744 ft 271 kts 282°
2026-05-08 15:47 36.56052 25.50719 19203 ft 273 kts 277°
2026-05-08 15:47 36.56173 25.48345 19661 ft 276 kts 271°
2026-05-08 15:47 36.56089 25.45950 20112 ft 279 kts 269°
2026-05-08 15:48 36.57329 25.41473 20939 ft 288 kts 311°
2026-05-08 15:48 36.59001 25.40043 21347 ft 301 kts 334°
2026-05-08 15:48 36.61104 25.39636 21749 ft 317 kts 359°
2026-05-08 15:49 36.63322 25.39924 22141 ft 320 kts 355°
2026-05-08 15:49 36.65500 25.39641 22530 ft 311 kts 336°
2026-05-08 15:49 36.67333 25.38301 22697 ft 308 kts 308°
2026-05-08 15:49 36.68376 25.36002 22827 ft 310 kts 283°
2026-05-08 15:50 36.68800 25.33322 22963 ft 321 kts 283°
2026-05-08 15:50 36.69527 25.30636 23101 ft 334 kts 294°
2026-05-08 15:50 36.70745 25.28107 23236 ft 347 kts 301°
2026-05-08 15:50 36.72139 25.25592 23369 ft 358 kts 302°
2026-05-08 15:51 36.73607 25.23025 23509 ft 368 kts 303°
2026-05-08 15:51 36.75127 25.20408 23641 ft 377 kts 303°
2026-05-08 15:51 36.76681 25.17740 23866 ft 383 kts 303°
2026-05-08 15:51 36.78248 25.15038 24185 ft 385 kts 303°
2026-05-08 15:52 36.79815 25.12316 24533 ft 387 kts 303°
2026-05-08 15:52 36.81378 25.09577 24886 ft 388 kts 303°
2026-05-08 15:52 36.82946 25.06823 25254 ft 390 kts 302°
2026-05-08 15:52 36.84516 25.04063 25610 ft 391 kts 302°
2026-05-08 15:53 36.86095 25.01287 25960 ft 393 kts 302°
2026-05-08 15:53 36.87677 24.98501 26316 ft 394 kts 302°
2026-05-08 15:53 36.89263 24.95707 26673 ft 395 kts 302°
2026-05-08 15:53 36.90855 24.92904 27010 ft 396 kts 302°
2026-05-08 15:54 36.92453 24.90093 27344 ft 398 kts 302°
2026-05-08 15:54 36.94056 24.87263 27671 ft 399 kts 302°
2026-05-08 15:54 36.95661 24.84422 28000 ft 401 kts 302°
2026-05-08 15:54 36.97271 24.81571 28318 ft 402 kts 302°
2026-05-08 15:55 36.98886 24.78705 28650 ft 404 kts 302°
2026-05-08 15:55 37.02140 24.72942 29276 ft 407 kts 302°
2026-05-08 15:55 37.03780 24.70041 29584 ft 409 kts 302°
2026-05-08 15:56 37.05421 24.67132 29886 ft 410 kts 302°
2026-05-08 15:56 37.07069 24.64208 30171 ft 412 kts 302°
2026-05-08 15:56 37.08720 24.61273 30405 ft 413 kts 302°
2026-05-08 15:56 37.10374 24.58326 30638 ft 414 kts 301°
2026-05-08 15:57 37.12031 24.55368 30855 ft 415 kts 301°
2026-05-08 15:57 37.13692 24.52404 31078 ft 416 kts 301°
2026-05-08 15:57 37.15356 24.49437 31305 ft 416 kts 301°
2026-05-08 15:57 37.17017 24.46481 31625 ft 414 kts 301°
2026-05-08 15:58 37.18670 24.43528 31942 ft 413 kts 301°
2026-05-08 15:58 37.20314 24.40585 32269 ft 411 kts 301°
2026-05-08 15:58 37.21931 24.37634 32577 ft 409 kts 300°
2026-05-08 15:58 37.23479 24.34649 32873 ft 407 kts 298°
2026-05-08 15:59 37.24982 24.31643 33152 ft 406 kts 298°
2026-05-08 15:59 37.26208 24.29150 33385 ft 405 kts 297°
2026-05-08 15:59 37.27688 24.26142 33647 ft 405 kts 298°